| time (UTC) | temp F | wind direction | speed knots | gust knots | rain 1hr in | rain 24hr in | rain mn in | humidity % | barometer mb |
| 20260901080058 | 72 | 81 | 8.7 | 20.0 | 0.00 | 0.00 | 0.00 | 65 | 1019.1 |
| 20260901074604 | 72 | 31 | 7.8 | 18.2 | 0.00 | 0.00 | 0.00 | 65 | 1019.0 |
| 20260901073058 | 71 | 108 | 10.4 | 17.4 | 0.00 | 0.00 | 0.00 | 65 | 1018.9 |
| 20260901071557 | 71 | 102 | 10.4 | 16.5 | 0.00 | 0.00 | 0.00 | 65 | 1018.8 |
| 20260901070058 | 70 | 84 | 10.4 | 17.4 | 0.00 | 0.00 | 0.00 | 65 | 1018.6 |
| 20260901064552 | 69 | 78 | 8.7 | 16.5 | 0.00 | 0.00 | 0.00 | 64 | 1018.6 |
| 20260901063107 | 68 | 78 | 8.7 | 17.4 | 0.00 | 0.00 | 0.00 | 64 | 1018.5 |
| 20260901061557 | 68 | 75 | 8.7 | 19.1 | 0.00 | 0.00 | 0.00 | 64 | 1018.4 |
| 20260901060057 | 68 | 80 | 8.7 | 16.5 | 0.00 | 0.00 | 0.00 | 64 | 1018.5 |
| 20260901054554 | 68 | 84 | 7.0 | 17.4 | 0.00 | 0.00 | 0.00 | 64 | 1018.3 |
| 20260901053055 | 68 | 82 | 6.1 | 14.8 | 0.00 | 0.00 | 0.00 | 64 | 1018.3 |
| 20260901051614 | 68 | 82 | 6.1 | 13.0 | 0.00 | 0.00 | 0.00 | 64 | 1018.3 |
| 20260901050057 | 68 | 82 | 7.0 | 13.9 | 0.00 | 0.00 | 0.00 | 64 | 1018.5 |
| 20260901044552 | 68 | 81 | 7.0 | 13.9 | 0.00 | 0.00 | 0.00 | 64 | 1018.3 |
| 20260901043059 | 67 | 81 | 7.0 | 11.3 | 0.00 | 0.00 | 0.00 | 64 | 1018.3 |
| 20260901041555 | 67 | 81 | 2.6 | 8.7 | 0.00 | 0.00 | 0.00 | 64 | 1018.3 |
| 20260901040055 | 68 | 81 | 6.1 | 12.2 | 0.00 | 0.00 | 0.00 | 64 | 1018.4 |
| 20260901034609 | 69 | 81 | 5.2 | 9.6 | 0.00 | 0.00 | 0.00 | 64 | 1018.2 |
| 20260901033113 | 70 | 81 | 7.0 | 13.0 | 0.00 | 0.00 | 0.00 | 64 | 1018.3 |
| 20260901031603 | 70 | 81 | 7.8 | 13.9 | 0.00 | 0.00 | 0.00 | 65 | 1018.3 |
| 20260901030057 | 70 | 80 | 7.0 | 13.0 | 0.00 | 0.00 | 0.00 | 65 | 1018.2 |
| 20260901024555 | 70 | 79 | 7.0 | 13.0 | 0.00 | 0.00 | 0.00 | 64 | 1018.3 |
| 20260901023059 | 70 | 79 | 7.0 | 14.8 | 0.00 | 0.00 | 0.00 | 65 | 1018.3 |
| 20260901021559 | 71 | 78 | 7.8 | 13.9 | 0.00 | 0.00 | 0.00 | 65 | 1018.3 |
| 20260901020053 | 70 | 77 | 6.1 | 13.0 | 0.00 | 0.00 | 0.00 | 65 | 1018.4 |
| 20260901014601 | 71 | 76 | 6.1 | 13.0 | 0.00 | 0.00 | 0.00 | 65 | 1018.6 |
| 20260901013054 | 71 | 75 | 6.1 | 13.9 | 0.00 | 0.00 | 0.00 | 65 | 1018.9 |
| 20260901011556 | 71 | 75 | 6.1 | 9.6 | 0.00 | 0.00 | 0.00 | 65 | 1018.9 |
| 20260901010104 | 72 | 75 | 6.1 | 12.2 | 0.00 | 0.00 | 0.00 | 65 | 1018.8 |
| 20260901004616 | 73 | 75 | 6.1 | 11.3 | 0.00 | 0.00 | 0.00 | 65 | 1018.9 |
| 20260901003054 | 73 | 74 | 7.0 | 14.8 | 0.00 | 0.00 | 0.00 | 65 | 1019.0 |
| 20260901001559 | 74 | 73 | 7.0 | 13.9 | 0.00 | 0.00 | 0.00 | 65 | 1018.9 |
| 20260901000103 | 74 | 72 | 7.8 | 14.8 | 0.00 | 0.00 | 0.00 | 65 | 1019.0 |
| 20260831234603 | 74 | 72 | 8.7 | 16.5 | 0.00 | 0.00 | 0.00 | 65 | 1019.1 |
| 20260831233057 | 75 | 72 | 7.8 | 13.9 | 0.00 | 0.00 | 0.00 | 65 | 1019.1 |
| 20260831231600 | 75 | 70 | 9.6 | 15.6 | 0.00 | 0.00 | 0.00 | 65 | 1018.9 |
| 20260831230050 | 76 | 69 | 11.3 | 15.6 | 0.00 | 0.00 | 0.00 | 66 | 1019.0 |
| 20260831224604 | 76 | 70 | 10.4 | 17.4 | 0.00 | 0.00 | 0.00 | 66 | 1018.8 |
| 20260831223047 | 77 | 75 | 8.7 | 16.5 | 0.00 | 0.00 | 0.00 | 66 | 1018.9 |
| 20260831221556 | 78 | 79 | 9.6 | 17.4 | 0.00 | 0.00 | 0.00 | 66 | 1018.9 |
| 20260831220050 | 78 | 87 | 9.6 | 15.6 | 0.00 | 0.00 | 0.00 | 66 | 1018.9 |
| 20260831214559 | 79 | 96 | 7.8 | 13.0 | 0.00 | 0.00 | 0.00 | 66 | 1018.9 |
| 20260831213054 | 79 | 103 | 7.8 | 13.0 | 0.00 | 0.00 | 0.00 | 66 | 1019.0 |
| 20260831211554 | 80 | 152 | 5.2 | 10.4 | 0.00 | 0.00 | 0.00 | 66 | 1019.0 |
| 20260831210100 | 81 | 156 | 5.2 | 7.8 | 0.00 | 0.00 | 0.00 | 67 | 1018.8 |
| 20260831204556 | 81 | 157 | 4.3 | 7.8 | 0.00 | 0.00 | 0.00 | 67 | 1018.6 |
| 20260831203102 | 76 | 158 | 2.6 | 4.3 | 0.00 | 0.00 | 0.00 | 66 | 1018.5 |
| 20260831201551 | 75 | 0 | 0.0 | 1.7 | 0.00 | 0.00 | 0.00 | 66 | 1018.3 |
| 20260831194628 | 77 | 158 | 0.0 | 0.9 | 0.00 | 0.00 | 0.00 | 66 | 1017.9 |
| 20260831193057 | 78 | 0 | 0.0 | 0.0 | 0.00 | 0.00 | 0.00 | 66 | 1017.6 |
| 20260831191552 | 80 | 0 | 0.0 | 1.7 | 0.00 | 0.00 | 0.00 | 67 | 1017.6 |
| 20260831190122 | 81 | 158 | 0.9 | 1.7 | 0.00 | 0.00 | 0.00 | 67 | 1017.4 |
| 20260831184602 | 82 | 158 | 1.7 | 3.5 | 0.00 | 0.00 | 0.00 | 67 | 1017.4 |
| 20260831183052 | 83 | 158 | 2.6 | 5.2 | 0.00 | 0.00 | 0.00 | 67 | 1017.3 |
| 20260831181600 | 84 | 158 | 3.5 | 8.7 | 0.00 | 0.00 | 0.00 | 68 | 1017.3 |
| 20260831180055 | 84 | 158 | 6.1 | 8.7 | 0.00 | 0.00 | 0.00 | 68 | 1017.3 |
| 20260831174634 | 85 | 158 | 5.2 | 11.3 | 0.00 | 0.00 | 0.00 | 68 | 1017.4 |
| 20260831173057 | 85 | 155 | 5.2 | 8.7 | 0.00 | 0.00 | 0.00 | 68 | 1017.4 |
| 20260831171554 | 86 | 156 | 3.5 | 7.8 | 0.00 | 0.00 | 0.00 | 68 | 1017.4 |
| 20260831170100 | 86 | 156 | 5.2 | 10.4 | 0.00 | 0.00 | 0.00 | 68 | 1017.3 |
| 20260831164558 | 87 | 156 | 4.3 | 8.7 | 0.00 | 0.00 | 0.00 | 68 | 1017.4 |
| 20260831163055 | 88 | 158 | 4.3 | 10.4 | 0.00 | 0.00 | 0.00 | 69 | 1017.4 |
| 20260831161553 | 88 | 158 | 4.3 | 8.7 | 0.00 | 0.00 | 0.00 | 69 | 1017.4 |
| 20260831160059 | 87 | 158 | 7.8 | 11.3 | 0.00 | 0.00 | 0.00 | 69 | 1017.6 |
| 20260831154616 | 87 | 153 | 5.2 | 11.3 | 0.00 | 0.00 | 0.00 | 69 | 1017.7 |
| 20260831153108 | 87 | 148 | 5.2 | 11.3 | 0.00 | 0.00 | 0.00 | 69 | 1017.9 |
| 20260831151549 | 86 | 139 | 7.8 | 13.0 | 0.00 | 0.00 | 0.00 | 69 | 1018.1 |
| 20260831144559 | 85 | 110 | 5.2 | 11.3 | 0.00 | 0.00 | 0.00 | 69 | 1018.3 |
| 20260831143103 | 85 | 104 | 5.2 | 10.4 | 0.00 | 0.00 | 0.00 | 69 | 1018.4 |
| 20260831141558 | 85 | 103 | 5.2 | 9.6 | 0.00 | 0.00 | 0.00 | 69 | 1018.4 |
| 20260831140054 | 84 | 102 | 4.3 | 9.6 | 0.00 | 0.00 | 0.00 | 69 | 1018.5 |
| 20260831134611 | 83 | 102 | 6.1 | 9.6 | 0.00 | 0.00 | 0.00 | 69 | 1018.5 |
| 20260831133103 | 83 | 102 | 3.5 | 9.6 | 0.00 | 0.00 | 0.00 | 69 | 1018.7 |
| 20260831131558 | 82 | 101 | 4.3 | 10.4 | 0.00 | 0.00 | 0.00 | 69 | 1018.9 |
| 20260831130101 | 81 | 101 | 6.1 | 10.4 | 0.00 | 0.00 | 0.00 | 69 | 1019.2 |
| 20260831124556 | 80 | 98 | 6.1 | 12.2 | 0.00 | 0.00 | 0.00 | 68 | 1019.2 |
| 20260831123055 | 80 | 91 | 6.1 | 11.3 | 0.00 | 0.00 | 0.00 | 69 | 1019.3 |
| 20260831121617 | 80 | 89 | 5.2 | 11.3 | 0.00 | 0.00 | 0.00 | 69 | 1019.4 |
| 20260831114556 | 79 | 87 | 4.3 | 9.6 | 0.00 | 0.00 | 0.00 | 68 | 1019.5 |
| 20260831113105 | 78 | 86 | 4.3 | 8.7 | 0.00 | 0.00 | 0.00 | 68 | 1019.7 |
| 20260831111550 | 78 | 86 | 4.3 | 10.4 | 0.00 | 0.00 | 0.00 | 68 | 1019.9 |
| 20260831110100 | 77 | 86 | 6.1 | 8.7 | 0.00 | 0.00 | 0.00 | 68 | 1020.1 |
| 20260831104559 | 77 | 86 | 6.1 | 10.4 | 0.00 | 0.00 | 0.00 | 68 | 1020.2 |
| 20260831103055 | 78 | 84 | 4.3 | 9.6 | 0.00 | 0.00 | 0.00 | 69 | 1020.2 |
| 20260831101604 | 77 | 84 | 6.1 | 11.3 | 0.00 | 0.00 | 0.00 | 69 | 1020.1 |
| 20260831094605 | 79 | 82 | 5.2 | 8.7 | 0.00 | 0.00 | 0.00 | 69 | 1020.0 |
| 20260831093139 | 81 | 82 | 4.3 | 7.8 | 0.00 | 0.00 | 0.00 | 69 | 1019.6 |
| 20260831091559 | 80 | 82 | 5.2 | 7.8 | 0.00 | 0.00 | 0.00 | 69 | 1019.6 |
| 20260831090101 | 79 | 82 | 4.3 | 7.8 | 0.00 | 0.00 | 0.00 | 69 | 1019.5 |
| 20260831084639 | 78 | 82 | 2.6 | 7.0 | 0.00 | 0.00 | 0.00 | 69 | 1019.4 |
| 20260831083051 | 76 | 82 | 5.2 | 10.4 | 0.00 | 0.00 | 0.00 | 69 | 1019.3 |
| 20260831081602 | 75 | 82 | 7.0 | 12.2 | 0.00 | 0.00 | 0.00 | 69 | 1019.3 |